TEVEL2-7

Last updated on Sun Dec 07 2025 00:03:12 GMT+0000 (Coordinated Universal Time)

1 63238U 25052AE 25340.64639138 .00027815 00000+0 11234-2 0 9995 2 63238 97.4149 232.0021 0009290 98.6358 261.5932 15.24692161 40613
UTC large
Height (km)
Speed (km/s)
/
Latitude / Longitude
Inclination (degrees)
Orbital Period (minutes)
Azimuth
Elevation
Range (km)
Doppler Factor

Next 0 passes for location: London (51.5072 / 0.1276)

Sorry there are no passes over London.